| time (UTC) | temp F | wind direction | speed knots | gust knots | rain 1hr in | rain 24hr in | rain mn in | humidity % | barometer mb |
| 20260508110003 | 51 | 80 | 1.7 | 4.3 | 0.00 | 0.00 | 0.00 | 89 | 1015.0 |
| 20260508105002 | 51 | 73 | 1.7 | 4.3 | 0.00 | 0.00 | 0.00 | 90 | 1015.0 |
| 20260508104002 | 51 | 90 | 1.7 | 3.5 | 0.00 | 0.00 | 0.00 | 90 | 1015.0 |
| 20260508103002 | 51 | 46 | 2.6 | 5.2 | 0.00 | 0.00 | 0.00 | 89 | 1014.0 |
| 20260508102002 | 51 | 90 | 1.7 | 4.3 | 0.00 | 0.00 | 0.00 | 89 | 1014.0 |
| 20260508101002 | 51 | 54 | 1.7 | 4.3 | 0.00 | 0.00 | 0.00 | 90 | 1014.0 |
| 20260508100002 | 51 | 59 | 2.6 | 4.3 | 0.00 | 0.00 | 0.00 | 90 | 1014.0 |
| 20260508095002 | 51 | 81 | 1.7 | 5.2 | 0.00 | 0.00 | 0.00 | 90 | 1014.0 |
| 20260508094002 | 51 | 36 | 1.7 | 4.3 | 0.00 | 0.00 | 0.00 | 90 | 1014.0 |
| 20260508093002 | 51 | 105 | 2.6 | 4.3 | 0.00 | 0.00 | 0.00 | 90 | 1014.0 |
| 20260508092002 | 51 | 105 | 2.6 | 4.3 | 0.00 | 0.00 | 0.00 | 90 | 1014.0 |
| 20260508091002 | 50 | 90 | 1.7 | 3.5 | 0.00 | 0.00 | 0.00 | 91 | 1014.0 |
| 20260508090003 | 50 | 90 | 1.7 | 4.3 | 0.00 | 0.00 | 0.00 | 91 | 1014.0 |
| 20260508085002 | 50 | 97 | 2.6 | 4.3 | 0.00 | 0.00 | 0.00 | 91 | 1014.0 |
| 20260508084002 | 50 | 114 | 2.6 | 7.0 | 0.00 | 0.00 | 0.00 | 91 | 1014.0 |
| 20260508083002 | 50 | 119 | 3.5 | 7.0 | 0.00 | 0.00 | 0.00 | 91 | 1014.0 |
| 20260508082004 | 50 | 116 | 3.5 | 7.0 | 0.00 | 0.00 | 0.00 | 91 | 1014.0 |
| 20260508081002 | 50 | 101 | 2.6 | 7.8 | 0.00 | 0.00 | 0.00 | 92 | 1014.0 |
| 20260508080002 | 49 | 105 | 2.6 | 5.2 | 0.00 | 0.00 | 0.00 | 92 | 1014.0 |
| 20260508075003 | 49 | 108 | 2.6 | 4.3 | 0.00 | 0.00 | 0.00 | 92 | 1014.0 |
| 20260508074007 | 49 | 109 | 2.6 | 6.1 | 0.00 | 0.00 | 0.00 | 92 | 1014.0 |
| 20260508073004 | 49 | 104 | 1.7 | 5.2 | 0.00 | 0.00 | 0.00 | 92 | 1014.0 |
| 20260508072003 | 49 | 90 | 1.7 | 4.3 | 0.00 | 0.00 | 0.00 | 92 | 1014.0 |
| 20260508071003 | 49 | 110 | 3.5 | 7.8 | 0.00 | 0.00 | 0.00 | 91 | 1014.0 |
| 20260508070003 | 49 | 116 | 3.5 | 7.0 | 0.00 | 0.00 | 0.00 | 91 | 1013.0 |
| 20260508065004 | 49 | 100 | 1.7 | 5.2 | 0.00 | 0.00 | 0.00 | 91 | 1013.0 |
| 20260508064002 | 49 | 112 | 2.6 | 6.1 | 0.00 | 0.00 | 0.00 | 91 | 1013.0 |
| 20260508063003 | 49 | 98 | 2.6 | 7.0 | 0.00 | 0.00 | 0.00 | 91 | 1013.0 |
| 20260508062003 | 49 | 118 | 3.5 | 7.0 | 0.00 | 0.00 | 0.00 | 90 | 1013.0 |
| 20260508061005 | 49 | 90 | 1.7 | 4.3 | 0.00 | 0.00 | 0.00 | 91 | 1013.0 |
| 20260508060012 | 49 | 97 | 2.6 | 5.2 | 0.00 | 0.00 | 0.00 | 90 | 1013.0 |
| 20260508055004 | 49 | 90 | 2.6 | 5.2 | 0.00 | 0.00 | 0.00 | 90 | 1013.0 |
| 20260508054010 | 49 | 90 | 2.6 | 7.0 | 0.00 | 0.00 | 0.00 | 90 | 1013.0 |
| 20260508053003 | 49 | 109 | 3.5 | 7.8 | 0.00 | 0.00 | 0.00 | 90 | 1013.0 |
| 20260508052010 | 49 | 90 | 2.6 | 5.2 | 0.00 | 0.00 | 0.00 | 90 | 1013.0 |
| 20260508051003 | 49 | 112 | 2.6 | 7.8 | 0.00 | 0.00 | 0.00 | 90 | 1013.0 |
| 20260508050003 | 49 | 117 | 3.5 | 7.0 | 0.00 | 0.00 | 0.00 | 90 | 1013.0 |
| 20260508045005 | 49 | 98 | 2.6 | 6.1 | 0.00 | 0.00 | 0.00 | 90 | 1013.0 |
| 20260508044005 | 49 | 123 | 3.5 | 7.8 | 0.00 | 0.00 | 0.00 | 90 | 1013.0 |
| 20260508043003 | 49 | 74 | 1.7 | 5.2 | 0.00 | 0.00 | 0.00 | 89 | 1013.0 |
| 20260508042009 | 49 | 117 | 3.5 | 7.0 | 0.00 | 0.00 | 0.00 | 89 | 1013.0 |
| 20260508041005 | 49 | 109 | 2.6 | 6.1 | 0.00 | 0.00 | 0.00 | 89 | 1013.0 |
| 20260508040007 | 49 | 112 | 1.7 | 5.2 | 0.00 | 0.00 | 0.00 | 89 | 1013.0 |
| 20260508035004 | 49 | 102 | 1.7 | 4.3 | 0.00 | 0.00 | 0.00 | 89 | 1013.0 |
| 20260508034006 | 49 | 95 | 2.6 | 7.0 | 0.00 | 0.00 | 0.00 | 89 | 1013.0 |
| 20260508033003 | 49 | 103 | 2.6 | 6.1 | 0.00 | 0.00 | 0.00 | 89 | 1012.0 |
| 20260508032003 | 49 | 124 | 4.3 | 7.8 | 0.00 | 0.00 | 0.00 | 89 | 1012.0 |
| 20260508031003 | 51 | 125 | 4.3 | 8.7 | 0.00 | 0.00 | 0.00 | 88 | 1012.0 |
| 20260508030004 | 51 | 86 | 3.5 | 7.0 | 0.00 | 0.00 | 0.00 | 88 | 1012.0 |
| 20260508025003 | 49 | 102 | 3.5 | 7.8 | 0.00 | 0.00 | 0.00 | 88 | 1012.0 |
| 20260508024002 | 49 | 120 | 3.5 | 7.0 | 0.00 | 0.00 | 0.00 | 88 | 1012.0 |
| 20260508023002 | 49 | 100 | 2.6 | 5.2 | 0.00 | 0.00 | 0.00 | 88 | 1012.0 |
| 20260508022002 | 49 | 118 | 3.5 | 7.8 | 0.00 | 0.00 | 0.00 | 88 | 1012.0 |
| 20260508021002 | 49 | 107 | 2.6 | 5.2 | 0.00 | 0.00 | 0.00 | 88 | 1012.0 |
| 20260508020002 | 49 | 113 | 3.5 | 5.2 | 0.00 | 0.00 | 0.00 | 87 | 1012.0 |
| 20260508015002 | 49 | 113 | 3.5 | 5.2 | 0.00 | 0.00 | 0.00 | 87 | 1012.0 |
| 20260508014002 | 49 | 118 | 3.5 | 7.8 | 0.00 | 0.00 | 0.00 | 87 | 1012.0 |
| 20260508013002 | 50 | 108 | 3.5 | 6.1 | 0.00 | 0.00 | 0.00 | 87 | 1012.0 |
| 20260508012002 | 50 | 118 | 2.6 | 5.2 | 0.00 | 0.00 | 0.00 | 86 | 1012.0 |
| 20260508011001 | 50 | 122 | 3.5 | 7.8 | 0.00 | 0.00 | 0.00 | 86 | 1012.0 |
| 20260508010002 | 50 | 118 | 3.5 | 7.8 | 0.00 | 0.00 | 0.00 | 86 | 1012.0 |
| 20260508005002 | 50 | 102 | 3.5 | 7.0 | 0.00 | 0.00 | 0.00 | 86 | 1012.0 |
| 20260508004002 | 50 | 114 | 3.5 | 5.2 | 0.00 | 0.00 | 0.00 | 86 | 1012.0 |
| 20260508003002 | 50 | 99 | 2.6 | 5.2 | 0.00 | 0.00 | 0.00 | 86 | 1012.0 |
| 20260508002003 | 50 | 115 | 2.6 | 5.2 | 0.00 | 0.00 | 0.00 | 86 | 1012.0 |
| 20260508001002 | 50 | 112 | 2.6 | 5.2 | 0.00 | 0.00 | 0.00 | 86 | 1012.0 |
| 20260508000002 | 50 | 107 | 1.7 | 4.3 | 0.00 | 0.00 | 0.00 | 86 | 1012.0 |
| 20260507235002 | 50 | 119 | 3.5 | 7.0 | 0.00 | 0.00 | 0.00 | 86 | 1012.0 |
| 20260507234002 | 50 | 101 | 2.6 | 4.3 | 0.00 | 0.00 | 0.00 | 86 | 1012.0 |
| 20260507233002 | 50 | 110 | 2.6 | 4.3 | 0.00 | 0.00 | 0.00 | 85 | 1012.0 |
| 20260507232002 | 50 | 111 | 3.5 | 7.0 | 0.00 | 0.00 | 0.00 | 85 | 1012.0 |
| 20260507231002 | 50 | 115 | 4.3 | 7.8 | 0.00 | 0.00 | 0.00 | 85 | 1012.0 |
| 20260507230002 | 50 | 120 | 4.3 | 7.8 | 0.00 | 0.00 | 0.00 | 85 | 1012.0 |
| 20260507225002 | 50 | 117 | 2.6 | 5.2 | 0.00 | 0.00 | 0.00 | 85 | 1012.0 |
| 20260507224002 | 50 | 125 | 4.3 | 7.8 | 0.00 | 0.00 | 0.00 | 84 | 1012.0 |
| 20260507223003 | 50 | 100 | 2.6 | 6.1 | 0.00 | 0.00 | 0.00 | 84 | 1012.0 |
| 20260507222003 | 50 | 117 | 3.5 | 6.1 | 0.00 | 0.00 | 0.00 | 84 | 1012.0 |
| 20260507221004 | 50 | 121 | 4.3 | 8.7 | 0.00 | 0.00 | 0.00 | 85 | 1012.0 |
| 20260507220002 | 51 | 113 | 4.3 | 7.8 | 0.00 | 0.00 | 0.00 | 84 | 1012.0 |
| 20260507215002 | 51 | 114 | 3.5 | 7.0 | 0.00 | 0.00 | 0.00 | 84 | 1012.0 |
| 20260507214001 | 51 | 104 | 4.3 | 9.6 | 0.00 | 0.00 | 0.00 | 84 | 1012.0 |
| 20260507213002 | 51 | 114 | 3.5 | 7.8 | 0.00 | 0.00 | 0.00 | 83 | 1012.0 |
| 20260507212002 | 51 | 123 | 5.2 | 8.7 | 0.00 | 0.00 | 0.00 | 83 | 1012.0 |
| 20260507211003 | 52 | 100 | 2.6 | 5.2 | 0.00 | 0.00 | 0.00 | 83 | 1012.0 |
| 20260507210003 | 52 | 118 | 4.3 | 7.0 | 0.00 | 0.00 | 0.00 | 83 | 1012.0 |
| 20260507205003 | 52 | 118 | 3.5 | 7.8 | 0.00 | 0.00 | 0.00 | 83 | 1012.0 |
| 20260507204002 | 52 | 112 | 3.5 | 7.8 | 0.00 | 0.00 | 0.00 | 83 | 1012.0 |
| 20260507203002 | 52 | 108 | 3.5 | 6.1 | 0.00 | 0.00 | 0.00 | 83 | 1012.0 |
| 20260507202002 | 52 | 90 | 2.6 | 5.2 | 0.00 | 0.00 | 0.00 | 83 | 1012.0 |
| 20260507201002 | 52 | 77 | 3.5 | 7.8 | 0.00 | 0.00 | 0.00 | 83 | 1012.0 |
| 20260507200002 | 52 | 90 | 3.5 | 7.8 | 0.00 | 0.00 | 0.00 | 84 | 1012.0 |
| 20260507195002 | 52 | 113 | 2.6 | 5.2 | 0.00 | 0.00 | 0.00 | 83 | 1012.0 |
| 20260507194002 | 52 | 127 | 4.3 | 7.0 | 0.00 | 0.00 | 0.00 | 83 | 1012.0 |
| 20260507193002 | 52 | 120 | 3.5 | 7.0 | 0.00 | 0.00 | 0.00 | 84 | 1012.0 |
| 20260507192002 | 52 | 118 | 3.5 | 6.1 | 0.00 | 0.00 | 0.00 | 84 | 1012.0 |
| 20260507191002 | 53 | 110 | 3.5 | 7.0 | 0.00 | 0.00 | 0.00 | 84 | 1012.0 |
| 20260507190004 | 53 | 111 | 3.5 | 7.8 | 0.00 | 0.00 | 0.00 | 84 | 1011.0 |
| 20260507185002 | 53 | 112 | 4.3 | 7.8 | 0.00 | 0.00 | 0.00 | 84 | 1011.0 |
| 20260507184002 | 53 | 112 | 4.3 | 9.6 | 0.00 | 0.00 | 0.00 | 84 | 1011.0 |
| 20260507183002 | 53 | 117 | 4.3 | 7.8 | 0.00 | 0.00 | 0.00 | 83 | 1011.0 |
| 20260507182002 | 53 | 125 | 5.2 | 9.6 | 0.00 | 0.00 | 0.00 | 83 | 1011.0 |
| 20260507181003 | 53 | 113 | 4.3 | 10.4 | 0.00 | 0.00 | 0.00 | 83 | 1011.0 |
| 20260507180002 | 54 | 111 | 3.5 | 7.8 | 0.00 | 0.00 | 0.00 | 83 | 1011.0 |
| 20260507175002 | 54 | 112 | 4.3 | 9.6 | 0.00 | 0.00 | 0.00 | 82 | 1011.0 |
| 20260507174002 | 54 | 108 | 3.5 | 7.8 | 0.00 | 0.00 | 0.00 | 81 | 1010.0 |
| 20260507173002 | 54 | 90 | 2.6 | 7.0 | 0.00 | 0.00 | 0.00 | 81 | 1010.0 |
| 20260507172002 | 55 | 115 | 4.3 | 9.6 | 0.00 | 0.00 | 0.00 | 80 | 1010.0 |
| 20260507171002 | 55 | 94 | 4.3 | 8.7 | 0.00 | 0.00 | 0.00 | 80 | 1010.0 |
| 20260507170002 | 56 | 53 | 2.6 | 6.1 | 0.00 | 0.00 | 0.00 | 79 | 1010.0 |
| 20260507165004 | 56 | 102 | 4.3 | 10.4 | 0.00 | 0.00 | 0.00 | 78 | 1010.0 |
| 20260507164002 | 56 | 90 | 2.6 | 9.6 | 0.00 | 0.00 | 0.00 | 78 | 1010.0 |
| 20260507163002 | 57 | 96 | 3.5 | 8.7 | 0.00 | 0.00 | 0.00 | 77 | 1010.0 |
| 20260507162002 | 58 | 107 | 3.5 | 8.7 | 0.00 | 0.00 | 0.00 | 76 | 1010.0 |
| 20260507161002 | 58 | 36 | 2.6 | 7.0 | 0.00 | 0.00 | 0.00 | 76 | 1010.0 |
| 20260507160002 | 59 | 43 | 3.5 | 7.8 | 0.00 | 0.00 | 0.00 | 75 | 1010.0 |
| 20260507155003 | 60 | 50 | 2.6 | 7.8 | 0.00 | 0.00 | 0.00 | 74 | 1009.0 |
| 20260507154002 | 60 | 18 | 3.5 | 7.0 | 0.00 | 0.00 | 0.00 | 73 | 1009.0 |
| 20260507153004 | 61 | 75 | 2.6 | 7.0 | 0.00 | 0.00 | 0.00 | 72 | 1009.0 |
| 20260507152002 | 61 | 98 | 3.5 | 7.8 | 0.00 | 0.00 | 0.00 | 72 | 1009.0 |
| 20260507151003 | 62 | 90 | 3.5 | 9.6 | 0.00 | 0.00 | 0.00 | 72 | 1009.0 |
| 20260507150002 | 62 | 39 | 2.6 | 7.0 | 0.00 | 0.00 | 0.00 | 72 | 1009.0 |
| 20260507145002 | 62 | 90 | 2.6 | 7.0 | 0.00 | 0.00 | 0.00 | 71 | 1009.0 |
| 20260507144001 | 63 | 73 | 2.6 | 6.1 | 0.00 | 0.00 | 0.00 | 70 | 1009.0 |
| 20260507143002 | 64 | 35 | 2.6 | 8.7 | 0.00 | 0.00 | 0.00 | 69 | 1009.0 |
| 20260507142002 | 65 | 39 | 2.6 | 8.7 | 0.00 | 0.00 | 0.00 | 68 | 1009.0 |
| 20260507141002 | 66 | 72 | 2.6 | 7.0 | 0.00 | 0.00 | 0.00 | 68 | 1009.0 |
| 20260507140002 | 67 | 50 | 2.6 | 7.8 | 0.00 | 0.00 | 0.00 | 67 | 1009.0 |
| 20260507135002 | 67 | 60 | 2.6 | 6.1 | 0.00 | 0.00 | 0.00 | 66 | 1008.0 |
| 20260507134002 | 68 | 30 | 3.5 | 7.8 | 0.00 | 0.00 | 0.00 | 66 | 1008.0 |
| 20260507133002 | 68 | 35 | 2.6 | 7.0 | 0.00 | 0.00 | 0.00 | 65 | 1008.0 |
| 20260507132003 | 68 | 83 | 3.5 | 7.0 | 0.00 | 0.00 | 0.00 | 63 | 1008.0 |
| 20260507131002 | 68 | 76 | 3.5 | 7.8 | 0.00 | 0.00 | 0.00 | 63 | 1008.0 |
| 20260507130002 | 68 | 90 | 3.5 | 7.0 | 0.00 | 0.00 | 0.00 | 64 | 1008.0 |
| 20260507125002 | 69 | 65 | 3.5 | 7.8 | 0.00 | 0.00 | 0.00 | 63 | 1008.0 |
| 20260507124002 | 69 | 67 | 2.6 | 8.7 | 0.00 | 0.00 | 0.00 | 63 | 1008.0 |
| 20260507123003 | 70 | 46 | 3.5 | 7.0 | 0.00 | 0.00 | 0.00 | 63 | 1008.0 |
| 20260507122003 | 70 | 346 | 2.6 | 5.2 | 0.00 | 0.00 | 0.00 | 64 | 1008.0 |
| 20260507121002 | 70 | 84 | 2.6 | 6.1 | 0.00 | 0.00 | 0.00 | 64 | 1008.0 |
| 20260507120005 | 70 | 42 | 2.6 | 5.2 | 0.00 | 0.00 | 0.00 | 64 | 1008.0 |
| 20260507115002 | 70 | 90 | 2.6 | 6.1 | 0.00 | 0.00 | 0.00 | 64 | 1007.0 |
| 20260507114002 | 70 | 61 | 3.5 | 7.8 | 0.00 | 0.00 | 0.00 | 64 | 1007.0 |
| 20260507113002 | 70 | 83 | 3.5 | 8.7 | 0.00 | 0.00 | 0.00 | 64 | 1007.0 |
| 20260507112002 | 70 | 55 | 2.6 | 6.1 | 0.00 | 0.00 | 0.00 | 64 | 1007.0 |
| 20260507111003 | 71 | 73 | 2.6 | 8.7 | 0.00 | 0.00 | 0.00 | 64 | 1007.0 |